Regional Weather Roundup
Issued by NWS

Home | Current Version | Previous Version | Graphics & Text | Print | Product List | Glossary On
Versions: 1 2 3 4 5 6 7 8 9 10 11 12 13 14 15 16 17 18 19 20 21 22 23 24 25 26 27 28 29 30 31 32 33 34 35 36 37 38 39 40 41 42 43 44 45 46 47 48 49 50
000
ASUS43 KBIS 030002
RWRND

NORTH DAKOTA REGIONAL WEATHER ROUNDUP
NATIONAL WEATHER SERVICE BISMARCK ND
700 PM CDT TUE JUN 02 2015

NOTE: "FAIR" INDICATES FEW OR NO CLOUDS BELOW 12,000 FEET WITH NO
SIGNIFICANT WEATHER AND/OR OBSTRUCTIONS TO VISIBILITY.


NDZ001>003-009>011-017-030100-
NORTHWEST NORTH DAKOTA

CITY           SKY/WX    TMP DP  RH WIND       PRES   REMARKS
WILLISTON      RAIN      55  53  93 N23G31    29.84R FOG
6HR MIN TEMP:  55; 6HR MAX TEMP:  60; 6HR PCP:  0.53;

MINOT          CLOUDY    61  57  87 NE15      29.76S
MINOT AFB      CLOUDY    60  60 100 E16       29.76S
$$

NDZ018>021-031>035-040>046-030100-
SOUTHWEST NORTH DAKOTA

CITY           SKY/WX    TMP DP  RH WIND       PRES   REMARKS
BISMARCK       CLOUDY    73  66  78 NE3       29.73R
6HR MIN TEMP:  72; 6HR MAX TEMP:  78; 6HR PCP: TRACE;

DICKINSON      MOSUNNY   70  54  56 W20       29.76F
GARRISON         N/A     69  61  75 E13       29.74R
6HR MIN TEMP:  68; 6HR MAX TEMP:  72;

HETTINGER ARPT SUNNY     73  55  53 NW17      29.79S
$$

NDZ004>008-012>016-024-026-027-054-030100-
NORTHEAST NORTH DAKOTA

CITY           SKY/WX    TMP DP  RH WIND       PRES   REMARKS
GRAND FORKS    CLOUDY    68  61  78 NE6       29.75F
GRND FRKS AFB  PTSUNNY   66  61  81 N8        29.76F
DEVILS LAKE    CLOUDY    63  55  77 E14G20    29.77S
$$

NDZ022-023-025-028>030-036>039-047>053-030100-
SOUTHEAST NORTH DAKOTA

CITY           SKY/WX    TMP DP  RH WIND       PRES   REMARKS
FARGO          CLOUDY    79  63  57 SE8       29.72F
6HR MIN TEMP:  69; 6HR MAX TEMP:  80;

$$



USA.gov is the U.S. government's official web portal to all federal, state and local government web resources and services.